Regional Weather Roundup
Issued by NWS

Home | Current Version | Previous Version | Graphics & Text | Print | Product List | Glossary On
Versions: 1 2 3 4 5 6 7 8 9 10 11 12 13 14 15 16 17 18 19 20 21 22 23 24 25 26 27 28 29 30 31 32 33 34 35 36 37 38 39 40 41 42 43 44 45 46 47 48 49 50
000
ASUS43 KFSD 310702
RWRSD

WEATHER ROUNDUP FOR SOUTH DAKOTA
NATIONAL WEATHER SERVICE SIOUX FALLS SD
100 AM CST SAT JAN 31 2015

NOTE: "FAIR" INDICATES FEW OR NO CLOUDS BELOW 12,000 FEET WITH NO
SIGNIFICANT WEATHER AND/OR OBSTRUCTIONS TO VISIBILITY.


SDZ001>005-009-010-012>017-310800-
NORTHWEST AND NORTH CENTRAL SOUTH DAKOTA

CITY           SKY/WX    TMP DP  RH WIND       PRES   REMARKS
BUFFALO          N/A     31  24  75 CALM      30.03F
FAITH            N/A     27  21  78 NE9       30.11F WCI  18
MOBRIDGE       MOCLDY    28  25  88 CALM      30.13R
$$

SDZ012>016-024>037-041>051-057-063-072>074-310800-
SOUTHWEST AND SOUTH CENTRAL SOUTH DAKOTA

CITY           SKY/WX    TMP DP  RH WIND       PRES   REMARKS
RAPID CTY ARPT CLOUDY    30  23  75 N8        30.09F WCI  22
PIERRE         PTCLDY    24  20  84 N8        30.11S WCI  15
CUSTER         CLOUDY    29  18  63 CALM      30.05F
ELLSWORTH AFB  MOCLDY    29  21  71 NW6       30.08F WCI  23
PHILIP         MOCLDY    22  19  89 NW3       30.11S
PINE RIDGE     CLOUDY    26  22  84 NE3       30.07F
WINNER         FAIR      34  24  67 CALM      30.11F
$$

SDZ004>011-016>023-039-040-310800-
NORTHEAST SOUTH DAKOTA

CITY           SKY/WX    TMP DP  RH WIND       PRES   REMARKS
ABERDEEN       CLOUDY    27  24  89 N14       30.17R FOG     WCI  16
WATERTOWN      CLEAR     22  20  92 N5        30.10S FOG     WCI  16
SISSETON         N/A     27  25  92 N14       30.15S WCI  16
$$

SDZ017-020-022-023-036>040-048>070-310800-
SOUTHEAST SOUTH DAKOTA

CITY           SKY/WX    TMP DP  RH WIND       PRES   REMARKS
SIOUX FALLS    CLEAR     30  25  81 S3        30.11F
HURON          CLEAR     26  23  88 N8        30.12S WCI  18
MITCHELL       PTCLDY    27  25  92 W5        30.12S WCI  22
YANKTON        PTCLDY    37  27  65 SW12      30.13S
$$

ABBREVIATIONS USED IN REMARKS
   TC - TEMPERATURE IN CELSIUS
  WCI - WIND CHILL INDEX
   HX - HEAT INDEX
  VSB - VISIBILITY



USA.gov is the U.S. government's official web portal to all federal, state and local government web resources and services.